Regional Weather Roundup
Issued by NWS New Orleans/Baton Rouge, LA

Home | Current Version | Previous Version | Text Only | Print | Product List | Glossary On
Versions: 1 2 3 4 5 6 7 8 9 10 11 12 13 14 15 16 17 18 19 20 21 22 23 24 25 26 27 28 29 30 31 32 33 34 35 36 37 38 39 40 41 42 43 44 45 46 47 48 49 50
108
ASUS44 KLIX 200401
RWRLIX
NEW ORLEANS REGIONAL WEATHER ROUNDUP
NATIONAL WEATHER SERVICE NEW ORLEANS LA
1100 PM CDT SAT APR 19 2014

NOTE: "FAIR" INDICATES FEW OR NO CLOUDS BELOW 12,000 FEET WITH NO
      SIGNIFICANT WEATHER AND/OR OBSTRUCTIONS TO VISIBILITY.
      SKY/WX - SKY CONDITION AND SIGNIFICANT WEATHER.
      TMP - AIR TEMPERATURE.     DP    - DEWPOINT TEMPERATURE.
      RH  - RELATIVE HUMIDITY.   PRES  - PRESSURE.
      HI  - HEAT INDEX.          WCI   - WIND CHILL INDEX.

*  THESE STATIONS ARE NOT NWS OR FAA STATIONS AND ARE NOT UNDER
   NWS QUALITY CONTROL.

LAZ038-040-048-061>063-065>067-069-200500-
SOUTHEAST LOUISIANA

CITY           SKY/WX    TMP DP  RH WIND       PRES   REMARKS
N.O. AUDUBON   NOT AVBL
N.O. INTL ARPT CLEAR     66  58  75 N3        30.12R
N.O. LAKEFRONT CLEAR     69  60  73 N8        30.12S
N.O. DOWNTOWN*   N/A     72  52  49 CALM      30.12F
SLIDELL        CLEAR     60  54  80 CALM      30.12S
BATON ROUGE    CLEAR     64  53  67 CALM      30.14R
BOOTHVILLE     CLEAR     64  61  90 NW6       30.12S
BELLE CHASSE   PTCLDY    59  55  87 CALM      30.12R
BOGALUSA*        N/A     59  54  83 CALM      30.14S
GALLIANO*      NOT AVBL
NEW ROADS*     NOT AVBL
GONZALES*        N/A     61  57  87 CALM      30.13R
HAMMOND*       NOT AVBL
HOUMA*         NOT AVBL
PORT FOURCHON* CLEAR     68  63  83 W6        30.14S

$$

MSZ070-080>082-200500-
SOUTHERN MISSISSIPPI

CITY           SKY/WX    TMP DP  RH WIND       PRES   REMARKS
MCCOMB         CLEAR     59  52  77 N3        30.15S
GULFPORT       CLEAR     63  55  75 CALM      30.11R
BILOXI         NOT AVBL
PASCAGOULA     CLEAR     57  56  96 CALM      30.11R

$$

COASTAL OBSERVATIONS
LAKE AND NEARSHORE STATIONS

STATION/POSITION TIME  TEMP    WIND        PRES    WAVE
                       AIR SEA DIR/SP/G            HT/PER
                 (UTC) (F)     (DEG/KT/KT) (MB)    (FT/S)
PASCAGOULA       0300   65      10/  4/  5 1018.6
WAVELAND YACHT   0300   67 70  290/  4/  5 1019.0
GRAND ISLE       0300   68 69  280/  9/ 10 1020.4
SOUTHWEST PASS   0300   66 59  300/  9/ 12 1020.0
NEW CANAL        0300   70 67   20/  5/  5 1020.3
SHELL BEACH      0300   70 66  310/  6/  6 1019.7

OFFSHORE STATIONS

STATION/POSITION TIME  TEMP    WIND        PRES    WAVE
                       AIR SEA DIR/SP/G            HT/PER
                 (UTC) (F)     (DEG/KT/KT) (MB)    (FT/S)
64 S DAUPHIN ISL 0251   70 71  320/ 10/ 12 1019.2

$$




USA.gov is the U.S. government's official web portal to all federal, state and local government web resources and services.